N6LC EDDC-EDSB

Flight info

Callsign N6LC
Flight time N/A
Altitude 40000
Route ABKIS4E ABKIS Z715 ANELA N869 GUPIN/N0411F220 L173 LBU Z729 KRH KRH1L
Aircraft LJ35/M-SGHRWXY/SB1

Departure

Time 2026-05-07 19:48
Airport Dresden Airport (EDDC)

Arrival

Time N/A
Airport Karlsruhe Baden-Baden Airport (EDSB)
Time Latitude Longitude Altitude Speed Heading
2026-05-07 19:14 51.12376 13.75980 754 ft 0 kts 220°
2026-05-07 19:38 51.12370 13.75973 754 ft 4 kts 204°
2026-05-07 19:38 51.12352 13.76017 749 ft 4 kts 58°
2026-05-07 19:38 51.12382 13.76051 752 ft 7 kts 36°
2026-05-07 19:39 51.12392 13.76063 749 ft 2 kts 37°
2026-05-07 19:39 51.12396 13.76068 752 ft 1 kts 30°
2026-05-07 19:39 51.12403 13.76051 753 ft 4 kts 232°
2026-05-07 19:39 51.12392 13.76008 751 ft 3 kts 294°
2026-05-07 19:40 51.12416 13.75958 756 ft 7 kts 310°
2026-05-07 19:40 51.12434 13.75913 753 ft 6 kts 272°
2026-05-07 19:40 51.12392 13.75844 758 ft 7 kts 223°
2026-05-07 19:40 51.12372 13.75809 758 ft 5 kts 233°
2026-05-07 19:41 51.12373 13.75743 758 ft 8 kts 292°
2026-05-07 19:41 51.12377 13.75728 758 ft 0 kts 293°
2026-05-07 19:44 51.12379 13.75720 758 ft 0 kts 293°
2026-05-07 19:45 51.12380 13.75720 758 ft 1 kts 293°
2026-05-07 19:46 51.12401 13.75637 756 ft 11 kts 292°
2026-05-07 19:46 51.12439 13.75544 758 ft 11 kts 311°
2026-05-07 19:46 51.12502 13.75514 755 ft 9 kts 41°
2026-05-07 19:46 51.12505 13.75519 758 ft 0 kts 42°
2026-05-07 19:48 51.12530 13.75555 754 ft 36 kts 41°
2026-05-07 19:48 51.13045 13.76259 808 ft 148 kts 41°
2026-05-07 19:48 51.13882 13.77418 2039 ft 175 kts 40°
2026-05-07 19:48 51.14495 13.78282 3088 ft 177 kts 40°
2026-05-07 19:49 51.15758 13.80149 5201 ft 189 kts 42°
2026-05-07 19:49 51.16401 13.81103 6130 ft 191 kts 41°
2026-05-07 19:49 51.17450 13.82666 6869 ft 236 kts 43°
2026-05-07 19:49 51.18762 13.84660 7147 ft 269 kts 43°
2026-05-07 19:50 51.20118 13.86811 7190 ft 279 kts 44°
2026-05-07 19:50 51.21519 13.89079 6991 ft 289 kts 45°
2026-05-07 19:50 51.22833 13.91487 6970 ft 288 kts 57°
2026-05-07 19:50 51.23684 13.94388 6867 ft 292 kts 75°
2026-05-07 19:51 51.23637 13.97500 7267 ft 274 kts 108°
2026-05-07 19:51 51.22759 14.00143 7322 ft 275 kts 128°
2026-05-07 19:51 51.21268 14.02234 6693 ft 298 kts 152°
2026-05-07 19:51 51.19379 14.03021 7147 ft 267 kts 180°
2026-05-07 19:52 51.17675 14.02399 7735 ft 244 kts 208°
2026-05-07 19:52 51.16273 14.00940 8050 ft 248 kts 220°
2026-05-07 19:52 51.15002 13.98891 8497 ft 267 kts 228°
2026-05-07 19:52 51.13822 13.96553 9024 ft 274 kts 232°
2026-05-07 19:53 51.12694 13.94110 9736 ft 272 kts 232°
2026-05-07 19:53 51.11499 13.91787 10411 ft 273 kts 230°
2026-05-07 19:53 51.10322 13.89428 11044 ft 276 kts 232°
2026-05-07 19:53 51.09138 13.86967 11706 ft 278 kts 232°
2026-05-07 19:54 51.07967 13.84480 12353 ft 283 kts 233°
2026-05-07 19:54 51.06760 13.81979 12998 ft 287 kts 231°
2026-05-07 19:54 51.05448 13.79562 13650 ft 290 kts 225°
2026-05-07 19:54 51.03989 13.77372 14451 ft 283 kts 223°
2026-05-07 19:55 51.02558 13.75259 15515 ft 277 kts 224°
2026-05-07 19:55 51.01158 13.73109 16694 ft 283 kts 225°
2026-05-07 19:55 50.99697 13.70826 17779 ft 313 kts 225°
2026-05-07 19:55 50.98086 13.68291 18866 ft 329 kts 226°
2026-05-07 19:56 50.96491 13.65767 20290 ft 320 kts 226°
2026-05-07 19:56 50.94958 13.63124 21095 ft 335 kts 232°
2026-05-07 19:56 50.93511 13.60056 21395 ft 361 kts 235°
2026-05-07 19:56 50.91961 13.56783 21757 ft 381 kts 234°
2026-05-07 19:57 50.90279 13.53577 22985 ft 372 kts 230°
2026-05-07 19:57 50.88556 13.50565 24261 ft 366 kts 230°
2026-05-07 19:57 50.86875 13.47525 25154 ft 370 kts 230°
2026-05-07 19:57 50.85170 13.44377 25689 ft 384 kts 231°
2026-05-07 19:58 50.83430 13.41124 26582 ft 377 kts 232°
2026-05-07 19:58 50.81794 13.38009 28079 ft 371 kts 231°
2026-05-07 19:58 50.80067 13.34855 28591 ft 384 kts 231°
2026-05-07 19:58 50.78353 13.31643 29740 ft 378 kts 232°
2026-05-07 19:59 50.76731 13.28502 30976 ft 369 kts 233°